McAllen, TX

4:08 AM CDT on March 23, 2017 (GMT -0500)
McAllen Miller International

Weather History for KMFE - May, 2013

Change the Weather History Date:

Thursday, May 2, 2013

  Actual Average Record
Temperature  
Mean Temperature 77 °F 79 °F  
Max Temperature 91 °F 89 °F 105 °F (1984)
Min Temperature 63 °F 69 °F 54 °F (1976)
Degree Days  
Heating Degree Days 0 0  
Month to date heating degree days 0 0  
Since 1 July heating degree days 318 579  
Cooling Degree Days 12 14  
Month to date cooling degree days 31 14  
Year to date cooling degree days 821 745  
Growing Degree Days 28 (Base 50)    
Moisture  
Dew Point 63 °F    
Average Humidity 62    
Maximum Humidity 87    
Minimum Humidity 36    
Precipitation  
Precipitation 0.00 in 0.06 in 1.64 in (1972)
Month to date precipitation 0.00 0.06  
Year to date precipitation 2.32 4.59  
Sea Level Pressure  
Sea Level Pressure 30.01 in    
Wind  
Wind Speed 14 mph (NNE)    
Max Wind Speed 29 mph    
Max Gust Speed 36 mph    
Visibility 10 miles    
Events      
T = Trace of Precipitation, MM = Missing Value Source: NWS Daily Summary

Daily Weather History Graph

Daily Weather History Graph

Search for Another Location

Airport or City:

Trip Planner

Search our weather history database for the weather conditions in past years. The results will help you decide how hot, cold, wet, or windy it might be!

Date:

Astronomy

May. 02, 2013 Rise Set
Actual Time 6:54 AM CDT 8:05 PM CDT
Civil Twilight 6:30 AM CDT 8:29 PM CDT
Nautical Twilight 6:01 AM CDT 8:58 PM CDT
Astronomical Twilight 5:31 AM CDT 9:28 PM CDT
Moon 2:00 AM CDT (5/2) 1:36 PM CDT (5/2)
Length of Visible Light 13h 59m
Length of Day
13h 10m
Waning Gibbous, 47% of the Moon is Illuminated
May 2
Waning Gibbous
May 9
New
May 17
First Quarter
May 24
Full
May 31
Last Quarter

Hourly Weather History & Observations

Time (CDT) Temp. Heat Index Dew Point Humidity Pressure Visibility Wind Dir Wind Speed Gust Speed Precip Events Conditions
12:53 AM 77.0 °F - 72.0 °F 84% 29.86 in 10.0 mi East 5.8 mph - N/A   Overcast
1:53 AM 77.0 °F - 71.1 °F 82% 29.86 in 10.0 mi SE 8.1 mph - N/A   Overcast
2:53 AM 77.0 °F - 71.1 °F 82% 29.86 in 10.0 mi East 6.9 mph - N/A   Overcast
3:53 AM 77.0 °F - 70.0 °F 79% 29.88 in 10.0 mi East 5.8 mph - N/A   Overcast
4:21 AM 75.2 °F - 71.6 °F 89% 29.91 in 10.0 mi NE 11.5 mph - N/A   Overcast
4:53 AM 75.9 °F - 71.1 °F 85% 29.92 in 10.0 mi NE 10.4 mph - N/A   Overcast
5:53 AM 75.0 °F - 71.1 °F 87% 29.93 in 10.0 mi NE 10.4 mph - N/A   Clear
6:53 AM 73.9 °F - 70.0 °F 87% 29.94 in 10.0 mi NE 3.5 mph - N/A   Clear
7:53 AM 73.9 °F - 70.0 °F 87% 29.95 in 10.0 mi Variable 3.5 mph - N/A   Scattered Clouds
8:13 AM 75.2 °F - 69.8 °F 83% 29.96 in 10.0 mi ENE 5.8 mph - N/A   Partly Cloudy
8:53 AM 77.0 °F - 70.0 °F 79% 29.97 in 10.0 mi NNE 5.8 mph - N/A   Scattered Clouds
9:53 AM 81.0 °F 84.1 °F 69.1 °F 67% 29.99 in 10.0 mi Calm Calm - N/A   Clear
10:53 AM 84.0 °F 86.3 °F 66.0 °F 55% 29.95 in 10.0 mi South 11.5 mph - N/A   Clear
11:31 AM 87.8 °F 89.4 °F 64.4 °F 46% 30.03 in 10.0 mi North 8.1 mph - N/A   Clear
11:53 AM 86.0 °F 87.6 °F 64.9 °F 49% 30.04 in 10.0 mi North 10.4 mph - N/A   Scattered Clouds
12:53 PM 89.1 °F 91.0 °F 64.9 °F 45% 30.02 in 10.0 mi North 11.5 mph - N/A   Partly Cloudy
1:53 PM 87.8 °F 87.6 °F 60.8 °F 40% 30.02 in 10.0 mi North 17.3 mph 26.5 mph N/A   Scattered Clouds
2:53 PM 88.0 °F 86.9 °F 57.9 °F 36% 30.01 in 10.0 mi North 19.6 mph 26.5 mph N/A   Mostly Cloudy
3:53 PM 84.0 °F 83.3 °F 57.0 °F 40% 30.03 in 10.0 mi North 21.9 mph 29.9 mph N/A   Overcast
4:53 PM 81.0 °F 80.8 °F 55.9 °F 42% 30.04 in 10.0 mi NNW 19.6 mph 27.6 mph N/A   Overcast
5:53 PM 78.1 °F - 55.0 °F 45% 30.06 in 10.0 mi NNW 16.1 mph 27.6 mph N/A   Overcast
6:53 PM 75.9 °F - 53.1 °F 45% 30.07 in 10.0 mi North 20.7 mph 27.6 mph N/A   Mostly Cloudy
7:53 PM 73.9 °F - 53.1 °F 48% 30.11 in 10.0 mi NNW 19.6 mph 27.6 mph N/A   Overcast
8:53 PM 71.1 °F - 50.0 °F 47% 30.18 in 10.0 mi NNW 24.2 mph 33.4 mph N/A   Overcast
9:53 PM 69.1 °F - 48.0 °F 47% 30.22 in 10.0 mi NNW 20.7 mph 29.9 mph N/A   Overcast
10:53 PM 66.9 °F - 48.0 °F 51% 30.23 in 10.0 mi NNW 18.4 mph 27.6 mph N/A   Overcast
11:53 PM 64.9 °F - 45.0 °F 48% 30.25 in 10.0 mi North 23.0 mph - N/A   Overcast